Hourly Data Report for October 07, 2016

All times are specified in Local Standard Time (LST). Add 1 hour to adjust for Daylight Saving Time where and when it is observed.

HALL BEACH A
NUNAVUT

68°46'33.000" N
81°14'33.000" W
9.10 m
2402354
71293
YUX

Download Data

Hourly Data (October 2016)
Hourly Data Report for October 7, 2016
Temp Definition
°C
Dew Point Temp Definition
°C
Rel Hum Definition
%
Wind Dir Definition
10's deg

Wind Spd Definition
km/h
Visibility Definition
km
Stn Press Definition
kPa
Hmdx Definition


Wind Chill Definition


Weather Definition


TIME
00:00 Legend Double Dagger -4.4 -5.2 94 29 17 16.1 101.49   -10 LegendNANA
01:00 Legend Double Dagger -3.9 -5.0 92 29 17 16.1 101.49   -10 LegendNANA
02:00 Legend Double Dagger -3.3 -4.4 92 30 21 16.1 101.53   -10 LegendNANA
03:00 Legend Double Dagger -3.4 -4.4 93 29 21 16.1 101.54   -10 LegendNANA
04:00 Legend Double Dagger -3.5 -4.5 93 29 18 16.1 101.57   -9 LegendNANA
05:00 Legend Double Dagger -3.6 -4.4 94 30 18 16.1 101.60   -9 LegendNANA
06:00 Legend Double Dagger -3.6 -4.3 95 29 15 16.1 101.62   -9 Snow
07:00 Legend Double Dagger -3.6 -4.2 96 30 15 16.1 101.67   -9 LegendNANA
08:00 Legend Double Dagger -3.2 -4.2 93 31 17 16.1 101.72   -9 LegendNANA
09:00 Legend Double Dagger -3.0 -4.0 93 31 17 16.1 101.75   -9 LegendNANA
10:00 Legend Double Dagger -2.6 -3.6 93 31 18 16.1 101.79   -8 Snow
11:00 Legend Double Dagger -1.8 -2.5 95 32 17 14.5 101.82   -7 Snow
12:00 Legend Double Dagger -1.6 -2.3 95 34 15 6.4 101.84   -6 Snow
13:00 Legend Double Dagger -1.9 -2.7 94 34 18 11.3 101.88   -7 Snow
14:00 Legend Double Dagger -1.9 -2.9 93 35 18 8.1 101.92   -7 Snow
15:00 Legend Double Dagger -1.9 -2.7 94 34 21 4.8 101.97   -8 Snow
16:00 Legend Double Dagger -1.8 -3.5 88 36 21 16.1 102.02   -8 LegendNANA
17:00 Legend Double Dagger -1.7 -3.4 88 35 26 16.1 102.04   -8 LegendNANA
18:00 Legend Double Dagger -1.9 -3.8 87 36 30 16.1 102.06   -9 LegendNANA
19:00 Legend Double Dagger -2.4 -3.8 90 1 30 16.1 102.09   -10 LegendNANA
20:00 Legend Double Dagger -2.7 -4.2 90 1 30 14.5 102.11   -10 LegendNANA
21:00 Legend Double Dagger -2.5 -3.9 90 1 24 14.5 102.11   -9 Snow
22:00 Legend Double Dagger -2.6 -4.0 90 36 26 16.1 102.10   -9 LegendNANA
23:00 Legend Double Dagger -3.3 -4.4 92 1 30 16.1 102.10   -11 LegendNANA

Notes on Data Quality.

Legend

  • E = Estimated
  • M = Missing
  • NA = Not Available
  • ‡ = Partner data that is not subject to review by the National Climate Archives
Date modified: